Regional Weather Roundup
Issued by NWS

Home | Current Version | Previous Version | Graphics & Text | Print | Product List | Glossary On
Versions: 1 2 3 4 5 6 7 8 9 10 11 12 13 14 15 16 17 18 19 20 21 22 23 24 25 26 27 28 29 30 31 32 33 34 35 36 37 38 39 40 41 42 43 44 45 46 47 48 49 50
000
ASUS43 KLMK 230302
RWRKY
KENTUCKY REGIONAL WEATHER ROUNDUP
NATIONAL WEATHER SERVICE LOUISVILLE KY
1000 PM EST SAT NOV 22 2014

NOTE "FAIR" INDICATES FEW OR NO CLOUDS BELOW 12,000 FEET
WITH NO SIGNIFICANT WEATHER AND/OR OBSTRUCTIONS TO VISIBILITY.

KYZ001>023-026-027-061>063-070>075-230400-
WESTERN AND SOUTH CENTRAL KENTUCKY

CITY           SKY/WX    TMP DP  RH WIND       PRES   REMARKS
PADUCAH        MOCLDY    57  37  47 S5        30.01F
HENDERSON      CLOUDY    55  36  47 S9        30.02F
OWENSBORO      MOCLDY    55  37  50 S8        30.05F
HOPKINSVILLE   PTCLDY    57  38  50 S9        30.05F
BOWLING GREEN  MOCLDY    55  37  50 S8        30.09F
GLASGOW        NOT AVBL
$$

KYZ024-025-028>034-038-045-046-053-230400-
NORTH CENTRAL KENTUCKY

CITY           SKY/WX    TMP DP  RH WIND       PRES   REMARKS
LOUISVILLE/SDF MOCLDY    50  33  52 SE6       30.07S
LOUISVILLE/LOU PTCLDY    50  33  52 SE3       30.08S
FORT KNOX      PTCLDY    49  33  53 S9        30.06F
$$

KYZ035>037-039>044-047>052-055>060-089>105-230400-
NORTHEAST KENTUCKY

CITY           SKY/WX    TMP DP  RH WIND       PRES   REMARKS
LEXINGTON      PTCLDY    49  33  54 S9        30.11S
COVINGTON      PTCLDY    51  32  48 S8        30.07S
FRANKFORT      CLEAR     47  30  51 S5        30.08S
$$

KYZ054-064>069-076>088-106>120-230400-
SOUTHEAST KENTUCKY

CITY           SKY/WX    TMP DP  RH WIND       PRES   REMARKS
JACKSON        CLEAR     50  27  40 S3        30.14F
LONDON         PTCLDY    50  30  46 S5        30.15F
SOMERSET       NOT AVBL
MIDDLESBORO    PTCLDY    35  32  88 CALM      30.21S
MONTICELLO     MOCLDY    54  38  54 S10       30.17S
$$



USA.gov is the U.S. government's official web portal to all federal, state and local government web resources and services.